Regional Weather Roundup
Issued by NWS

Home | Current Version | Previous Version | Text Only | Print | Product List | Glossary On
Versions: 1 2 3 4 5 6 7 8 9 10 11 12 13 14 15 16 17 18 19 20 21 22 23 24 25 26 27 28 29 30 31 32 33 34 35 36 37 38 39 40 41 42 43 44 45 46 47 48 49 50
000
ASUS45 KBOI 300510
RWRID

IDAHO REGIONAL WEATHER ROUNDUP
NATIONAL WEATHER SERVICE BOISE ID
1100 PM MDT SUN MAY 29 2016

NOTE: "FAIR" INDICATES FEW OR NO CLOUDS BELOW 12000 FEET
WITH NO SIGNIFICANT WEATHER AND/OR OBSTRUCTIONS TO VISIBILITY

IDZ012-014-300600-
SOUTHWEST IDAHO


CITY           SKY/WX    TMP DP  RH WIND       PRES   REMARKS
BOISE          PTCLDY    65  35  33 NW8       29.97R
CALDWELL       CLEAR     64  44  48 NW8       29.98R
MOUNTAIN HOME  CLEAR     65  41  41 NE2       29.96R
$$

IDZ016-017-300600-
SOUTHCENTRAL IDAHO


CITY           SKY/WX    TMP DP  RH WIND       PRES   REMARKS
BURLEY         PTCLDY    59  45  59 SW16      30.00S
JEROME         PTCLDY    58  47  66 E6        30.02R
TWIN FALLS     CLEAR     57  45  64 S13       30.01R
$$

IDZ019>023-300600-
SOUTHEAST IDAHO


CITY           SKY/WX    TMP DP  RH WIND       PRES   REMARKS
IDAHO FALLS    CLOUDY    59  42  53 SW10      30.04S
POCATELLO      CLOUDY    62  39  42 S6        30.02F
REXBURG        PTCLDY    58  41  53 S13       30.02S
$$

IDZ006-010-011-018-031-032-300600-
CENTRAL IDAHO MOUNTAINS


CITY           SKY/WX    TMP DP  RH WIND       PRES   REMARKS
MCCALL         PTCLDY    55  38  52 N9        30.08R
HAILEY         PTCLDY    57  34  41 W8        30.07R
STANLEY          N/A     43  26  51 S3        30.12R
SALMON         PTCLDY    57  30  35 NE3       29.97R
CHALLIS        CLEAR     59  20  22 SW9       30.02R
$$

IDZ002-004-006-007-026-300600-
NORTHERN IDAHO


CITY           SKY/WX    TMP DP  RH WIND       PRES   REMARKS
LEWISTON       MOCLDY    67  39  35 W12       30.02R
LOWELL           N/A     58  52  80 CALM      30.04R
COEUR D`ALENE  CLOUDY    55  37  50 N15       30.01R
MULLAN PASS    CLOUDY    45  34  65 SW9       30.07R
$$



USA.gov is the U.S. government's official web portal to all federal, state and local government web resources and services.